Location: Courcelles
(49.2596°N, 1.7419°E)
Time: 21:39:39
(UTC+00:00)

Iridium 4 Rocket - Pass Details

Date: 17 November 2025
Orbit: 579 x 888 km, 86.9° (Epoch: 04 December)

Event Time Altitude Azimuth Distance (km) Brightness Sun altitude
Rises 16:58:40 0° 194° (SSW) 3,241 7.3 -8.2°
Reaches altitude 10° 17:01:09 10° 198° (SSW) 2,269 6.5 -8.6°
Maximum altitude 17:06:05 54° 276° (W) 855 4.2 -9.4°
Drops below altitude 10° 17:10:38 10° 355° (N) 2,092 5.6 -10.1°
Sets 17:12:50 0° 360° (N) 2,965 6.4 -10.4°
